This demonstration page uses our WeatherBlox Daily Observations layout. Learn more.

Left ArrowRight Arrow

40.92945, -100.16068

Hourly Observations for February 11, 2022

Temp ( °F °C ) Dew Point ( °F °C ) Humidity (%) Winds ( mph kmh ) Pressure ( in mb ) Visibility ( mi km ) Precip ( " mm )
12:15 am 00:15 Cloudy 52 11 30 -1.1 43 43 NW 14 22 29.63 1003 10 16 0.00 0.00
12:35 am 00:35 Mostly Cloudy 50 10.1 30 -1.2 46 46 NW 14 22 29.66 1004 10 16 0.00 0.00
12:55 am 00:55 Mostly Cloudy 49 9.4 30 -1.3 48 48 NW 13 20 29.67 1005 10 16 0.00 0.00
1:15 am 01:15 Partly Cloudy 47 8.6 29 -1.5 49 49 NNW 12 19 29.69 1006 10 16 0.00 0.00
1:35 am 01:35 Clear 47 8.5 33 0.8 59 59 NNE 8 13 29.70 1006 10 16 0.00 0.00
1:55 am 01:55 Clear 45 7.1 32 0 61 61 N 8 13 29.73 1007 10 16 0.00 0.00
2:15 am 02:15 Clear 46 7.6 35 1.4 65 65 N 12 19 29.74 1007 10 16 0.00 0.00
2:35 am 02:35 Clear 45 7 33 0.5 64 64 N 12 19 29.77 1008 10 16 0.00 0.00
2:55 am 02:55 Clear 44 6.5 33 0.4 65 65 N 9 15 29.76 1008 10 16 0.00 0.00
3:15 am 03:15 Clear 43 6.3 33 0.5 67 67 N 14 22 29.78 1008 10 16 0.00 0.00
3:35 am 03:35 Clear 43 5.9 32 0.1 67 67 N 13 20 29.80 1009 10 16 0.00 0.00
3:55 am 03:55 Partly Cloudy 42 5.6 32 0 68 68 N 14 22 29.80 1009 10 16 0.00 0.00
4:15 am 04:15 Mostly Cloudy 42 5.8 33 0.7 70 70 N 17 28 29.80 1009 10 16 0.00 0.00
4:35 am 04:35 Cloudy 42 5.5 33 0.7 72 72 NNW 14 22 29.82 1010 10 16 0.00 0.00
4:55 am 04:55 Cloudy 42 5.6 33 0.8 72 72 NNW 20 31 29.85 1011 10 16 0.00 0.00
5:15 am 05:15 Cloudy 42 5.5 33 0.5 71 71 NNW 20 31 29.86 1011 10 16 0.00 0.00
5:35 am 05:35 Mostly Cloudy 41 4.9 32 0 71 71 NNW 24 39 29.89 1012 10 16 0.00 0.00
5:55 am 05:55 Partly Cloudy 40 4.2 32 -0.2 73 73 NNW 20 31 29.90 1012 10 16 0.00 0.00
6:15 am 06:15 Partly Cloudy 39 3.8 31 -0.5 74 74 NNW 17 28 29.90 1013 10 16 0.00 0.00
6:35 am 06:35 Clear 38 3.4 31 -0.7 75 75 NNW 17 28 29.91 1013 10 16 0.00 0.00
6:55 am 06:55 Clear 38 3.5 31 -0.6 75 75 NNW 20 31 29.93 1014 10 16 0.00 0.00
7:15 am 07:15 Clear 39 3.7 31 -0.8 73 73 NNW 20 31 29.95 1014 10 16 0.00 0.00
7:35 am 07:35 Clear 39 4 30 -1.1 70 70 NNW 20 31 29.96 1014 10 16 0.00 0.00
7:55 am 07:55 Sunny 38 3.5 29 -1.5 70 70 NW 16 26 29.98 1015 10 16 0.00 0.00
8:15 am 08:15 Sunny 38 3.5 28 -2 68 68 NW 16 26 29.98 1015 10 16 0.00 0.00
8:35 am 08:35 Sunny 39 4 26 -3.2 60 60 NW 15 24 30.00 1016 10 16 0.00 0.00
8:55 am 08:55 Partly Cloudy 41 4.9 28 -2.2 60 60 NW 17 28 30.00 1016 10 16 0.00 0.00
9:15 am 09:15 Partly Cloudy 42 5.4 28 -2 59 59 NW 22 35 30.00 1016 10 16 0.00 0.00
9:35 am 09:35 Partly Cloudy 42 5.8 28 -2.4 56 56 NNW 30 48 30.00 1016 10 16 0.00 0.00
9:55 am 09:55 Partly Cloudy 44 6.6 27 -3 51 51 NNW 32 52 30.00 1016 10 16 0.00 0.00
10:15 am 10:15 Sunny 44 6.9 26 -3.2 49 49 NNW 36 57 30.00 1016 10 16 0.00 0.00
10:35 am 10:35 Partly Cloudy 45 7.2 24 -4.2 45 45 NNW 39 63 30.02 1016 10 16 0.00 0.00
10:55 am 10:55 Partly Cloudy 46 7.7 24 -4.7 41 41 NNW 35 56 30.01 1016 10 16 0.00 0.00
11:15 am 11:15 Partly Cloudy 47 8.2 23 -5 39 39 NNW 33 54 30.01 1016 10 16 0.00 0.00
11:35 am 11:35 Partly Cloudy 47 8.3 23 -4.9 39 39 NNW 33 54 30.02 1016 10 16 0.00 0.00
11:55 am 11:55 Mostly Cloudy 47 8.5 24 -4.5 40 40 NNW 33 54 30.03 1017 10 16 0.00 0.00
12:15 pm 12:15 Mostly Cloudy 47 8.5 26 -3.2 44 44 NW 32 52 30.04 1017 10 16 0.00 0.00
12:35 pm 12:35 Mostly Cloudy 42 5.8 29 -1.9 58 58 N 32 52 30.07 1018 10 16 0.00 0.00
12:55 pm 12:55 Partly Cloudy 43 6.2 29 -1.8 57 57 N 26 43 30.08 1019 10 16 0.00 0.00
1:15 pm 13:15 Sunny 44 6.8 26 -3.1 50 50 N 25 41 30.07 1018 10 16 0.00 0.00
1:35 pm 13:35 Sunny 44 6.5 26 -3.4 50 50 NNW 25 41 30.08 1019 10 16 0.00 0.00
1:55 pm 13:55 Partly Cloudy 44 6.7 26 -3.5 49 49 N 26 43 30.08 1019 10 16 0.00 0.00
2:15 pm 14:15 Partly Cloudy 44 6.5 24 -4.3 46 46 N 32 52 30.09 1019 10 16 0.00 0.00
2:35 pm 14:35 Partly Cloudy 42 5.7 24 -4.6 48 48 N 33 54 30.11 1020 10 16 0.00 0.00
2:55 pm 14:55 Partly Cloudy 41 4.9 21 -5.9 46 46 NNW 33 54 30.13 1020 10 16 0.00 0.00
3:15 pm 15:15 Partly Cloudy 42 5.3 20 -6.8 42 42 N 31 50 30.15 1021 10 16 0.00 0.00
3:35 pm 15:35 Mostly Cloudy 40 4.7 19 -7.3 42 42 NNW 30 48 30.16 1021 10 16 0.00 0.00
3:55 pm 15:55 Cloudy 40 4.2 18 -7.6 42 42 N 35 56 30.19 1022 10 16 0.00 0.00
4:15 pm 16:15 Mostly Cloudy 39 3.8 19 -7.5 44 44 N 28 44 30.20 1023 10 16 0.00 0.00
4:35 pm 16:35 Partly Cloudy 36 2.2 17 -8.5 45 45 N 33 54 30.25 1024 10 16 0.00 0.00
4:55 pm 16:55 Partly Cloudy 35 1.6 16 -8.9 46 46 NNW 29 46 30.26 1025 10 16 0.00 0.00
5:15 pm 17:15 Partly Cloudy 33 0.6 15 -9.2 48 48 N 25 41 30.29 1026 10 16 0.00 0.00
5:35 pm 17:35 Partly Cloudy 32 -0.2 15 -9.7 49 49 N 25 41 30.31 1026 10 16 0.00 0.00
5:55 pm 17:55 Partly Cloudy 30 -1.1 13 -10.5 49 49 N 20 31 30.35 1028 10 16 0.00 0.00
6:15 pm 18:15 Clear 28 -2 13 -10.6 52 52 N 20 31 30.36 1028 10 16 0.00 0.00
6:35 pm 18:35 Clear 27 -2.8 11 -11.4 52 52 N 18 30 30.39 1029 10 16 0.00 0.00
6:55 pm 18:55 Clear 26 -3.6 12 -11.2 56 56 N 18 30 30.40 1030 10 16 0.00 0.00
7:15 pm 19:15 Clear 25 -4 12 -11.2 58 58 NNW 15 24 30.43 1030 10 16 0.00 0.00
7:35 pm 19:35 Clear 24 -4.7 12 -11.3 60 60 N 13 20 30.45 1031 10 16 0.00 0.00
7:55 pm 19:55 Clear 22 -5.5 11 -11.5 63 63 N 14 22 30.47 1032 10 16 0.00 0.00
8:15 pm 20:15 Clear 22 -5.8 11 -11.6 64 64 N 13 20 30.49 1032 10 16 0.00 0.00
8:35 pm 20:35 Clear 20 -6.5 11 -11.9 66 66 N 9 15 30.51 1033 10 16 0.00 0.00
8:55 pm 20:55 Clear 19 -7.5 10 -12.3 69 69 NNW 9 15 30.54 1034 10 16 0.00 0.00
9:15 pm 21:15 Partly Cloudy 16 -9 9 -13 73 73 NNW 9 15 30.56 1035 10 16 0.00 0.00
9:35 pm 21:35 Partly Cloudy 16 -8.9 9 -12.8 74 74 N 10 17 30.56 1035 10 16 0.00 0.00
9:55 pm 21:55 Partly Cloudy 16 -8.8 9 -12.9 73 73 N 6 9 30.57 1035 10 16 0.00 0.00
10:15 pm 22:15 Partly Cloudy 14 -10.1 8 -13.5 76 76 NNW 6 9 30.60 1036 10 16 0.00 0.00
10:35 pm 22:35 Clear 13 -10.7 7 -13.9 78 78 NNW 5 7 30.62 1037 10 16 0.00 0.00
10:55 pm 22:55 Clear 12 -11.1 6 -14.4 77 77 NW 7 11 30.64 1037 10 16 0.00 0.00
11:15 pm 23:15 Partly Cloudy 11 -11.6 6 -14.6 79 79 NNW 8 13 30.65 1038 10 16 0.00 0.00
11:35 pm 23:35 Partly Cloudy 10 -12.3 5 -15.2 79 79 WNW 8 13 30.67 1039 10 16 0.00 0.00
11:55 pm 23:55 Clear 9 -12.7 5 -15.1 82 82 NNW 9 15 30.67 1039 10 16 0.00 0.00

Powered by AerisWeather